This demonstration page uses our WeatherBlox Daily Observations layout. Learn more.

40.92945, -100.16068

Hourly Observations for December 19, 2019

Temp ( °F °C ) Dew Point ( °F °C ) Humidity (%) Winds ( mph kmh ) Pressure ( in mb ) Visibility ( mi km ) Precip ( " mm )
12:15 am 00:15 Clear 21 -6 19 -7 93 93 Calm 30.22 1023 10 16.0934 0 0
12:35 am 00:35 Clear 21 -6 19 -7 93 93 Calm 30.22 1023 10 16.0934 0 0
12:55 am 00:55 Clear 22 -5.6 20 -6.8 91 91 WNW 5 7 30.2 1023 10 16.0934 0 0
1:15 am 01:15 Clear 20 -6.5 19 -7.5 93 93 Calm 30.21 1023 10 16.0934 0 0
1:35 am 01:35 Clear 20 -6.4 19 -7.5 92 92 Calm 30.2 1023 10 16.0934 0 0
1:55 am 01:55 Clear 20 -6.5 18 -7.6 92 92 Calm 30.2 1023 10 16.0934 0 0
2:15 am 02:15 Clear 19 -7.4 17 -8.5 92 92 Calm 30.21 1023 10 16.0934 0 0
2:35 am 02:35 Clear 18 -7.7 16 -8.7 93 93 NNW 3 6 30.22 1023 10 16.0934 0 0
2:55 am 02:55 Clear 18 -8 16 -9 93 93 NNW 6 9 30.22 1023 10 16.0934 0 0
3:15 am 03:15 Clear 18 -7.6 16 -8.8 91 91 NW 5 7 30.22 1023 10 16.0934 0 0
3:35 am 03:35 Clear 18 -7.8 16 -9 91 91 WNW 3 6 30.22 1023 10 16.0934 0 0
3:55 am 03:55 Clear 18 -8 16 -9.1 92 92 Calm 30.22 1023 10 16.0934 0 0
4:15 am 04:15 Clear 17 -8.2 15 -9.2 93 93 Calm 30.22 1023 10 16.0934 0 0
4:35 am 04:35 Clear 17 -8.1 15 -9.2 92 92 N 5 7 30.21 1023 10 16.0934 0 0
4:55 am 04:55 Clear 17 -8.1 15 -9.2 92 92 Calm 30.2 1023 10 16.0934 0 0
5:15 am 05:15 Clear 16 -8.9 14 -9.9 93 93 Calm 30.2 1023 10 16.0934 0 0
5:35 am 05:35 Clear 17 -8.3 15 -9.5 91 91 NW 3 6 30.18 1022 10 16.0934 0 0
5:55 am 05:55 Clear 17 -8.5 15 -9.5 93 93 Calm 30.18 1022 10 16.0934 0 0
6:15 am 06:15 Clear 17 -8.5 15 -9.5 93 93 Calm 30.18 1022 10 16.0934 0 0
6:35 am 06:35 Clear 17 -8.5 15 -9.6 92 92 NNW 3 6 30.18 1022 10 16.0934 0 0
6:55 am 06:55 Clear 16 -8.8 14 -10 91 91 Calm 30.19 1022 10 16.0934 0 0
7:15 am 07:15 Clear 16 -9 14 -10 93 93 Calm 30.19 1022 10 16.0934 0 0
7:35 am 07:35 Clear 16 -8.7 14 -9.8 92 92 Calm 30.19 1022 10 16.0934 0 0
7:55 am 07:55 Clear 16 -8.7 15 -9.7 93 93 Calm 30.18 1022 10 16.0934 0 0
8:15 am 08:15 Sunny 17 -8.3 15 -9.5 91 91 Calm 30.17 1022 10 16.0934 0 0
8:35 am 08:35 Sunny 17 -8.2 15 -9.3 92 92 Calm 30.16 1021 10 16.0934 0 0
8:55 am 08:55 Sunny 19 -7.5 17 -8.6 92 92 Calm 30.15 1021 10 16.0934 0 0
9:15 am 09:15 Sunny 21 -6.1 19 -7.5 90 90 Calm 30.14 1021 10 16.0934 0 0
9:35 am 09:35 Sunny 24 -4.6 21 -5.9 91 91 Calm 30.12 1020 10 16.0934 0 0
9:55 am 09:55 Sunny 25 -3.9 22 -5.4 89 89 N 3 6 30.13 1020 10 16.0934 0 0
10:15 am 10:15 Sunny 25 -3.7 22 -5.3 89 89 NNE 3 6 30.12 1020 10 16.0934 0 0
10:35 am 10:35 Sunny 27 -2.6 24 -4.4 88 88 Calm 30.11 1020 10 16.0934 0 0
10:55 am 10:55 Sunny 29 -1.5 25 -3.7 85 85 ENE 3 6 30.1 1019 10 16.0934 0 0
11:15 am 11:15 Sunny 32 0 28 -2 87 87 Calm 30.08 1019 10 16.0934 0 0
11:35 am 11:35 Sunny 37 2.7 30 -0.9 77 77 E 3 6 30.04 1017 10 16.0934 0 0
11:55 am 11:55 Sunny 42 5.3 29 -1.6 61 61 SSE 7 11 30.01 1016 10 16.0934 0 0
12:15 pm 12:15 Sunny 44 6.4 28 -2.4 54 54 SSE 7 11 29.97 1015 10 16.0934 0 0
12:35 pm 12:35 Sunny 45 7 26 -3.4 48 48 SSE 8 13 29.96 1015 10 16.0934 0 0
12:55 pm 12:55 Sunny 44 6.6 27 -2.8 51 51 S 9 15 29.95 1014 10 16.0934 0 0
1:15 pm 13:15 Sunny 44 6.4 27 -2.9 52 52 S 12 19 29.94 1014 10 16.0934 0 0
1:35 pm 13:35 Sunny 43 5.9 27 -3 53 53 S 16 26 29.95 1014 10 16.0934 0 0
1:55 pm 13:55 Sunny 42 5.8 28 -2.3 56 56 S 13 20 29.95 1014 10 16.0934 0 0
2:15 pm 14:15 Sunny 43 6.2 28 -2.3 55 55 S 9 15 29.95 1014 10 16.0934 0 0
2:35 pm 14:35 Sunny 44 6.8 28 -2 54 54 SSE 3 6 29.94 1014 10 16.0934 0 0
2:55 pm 14:55 Sunny 46 7.8 29 -1.7 51 51 SSW 7 11 29.93 1014 10 16.0934 0 0
3:15 pm 15:15 Sunny 46 7.8 26 -3.1 46 46 SSW 14 22 29.92 1013 10 16.0934 0 0
3:35 pm 15:35 Sunny 46 7.7 26 -3.1 47 47 S 12 19 29.92 1013 10 16.0934 0 0
3:55 pm 15:55 Sunny 45 7.1 27 -2.8 50 50 S 8 13 29.93 1013 10 16.0934 0 0
4:15 pm 16:15 Sunny 43 6.2 28 -2.3 55 55 ENE 3 6 29.95 1014 10 16.0934 0 0
4:35 pm 16:35 Sunny 40 4.7 28 -2.3 61 61 ENE 5 7 29.96 1015 10 16.0934 0 0
4:55 pm 16:55 Sunny 42 5.6 26 -3.4 53 53 ESE 6 9 29.96 1015 10 16.0934 0 0
5:15 pm 17:15 Clear 42 5.5 25 -4 51 51 SE 5 7 29.96 1015 10 16.0934 0 0
5:35 pm 17:35 Clear 42 5.5 24 -4.7 48 48 SSE 3 6 29.96 1015 10 16.0934 0 0
5:55 pm 17:55 Clear 38 3.5 24 -4.5 56 56 E 3 6 29.99 1016 10 16.0934 0 0
6:15 pm 18:15 Clear 37 2.9 24 -4.7 58 58 E 3 6 30.01 1016 10 16.0934 0 0
6:35 pm 18:35 Clear 38 3.4 23 -5 55 55 ESE 3 6 30.01 1016 10 16.0934 0 0
6:55 pm 18:55 Clear 39 4.1 22 -5.4 50 50 Calm 30.02 1016 10 16.0934 0 0
7:15 pm 19:15 Clear 40 4.5 21 -6 47 47 Calm 30.02 1017 10 16.0934 0 0
7:35 pm 19:35 Clear 37 2.6 23 -5.2 57 57 WSW 6 9 30.04 1017 10 16.0934 0 0
7:55 pm 19:55 Clear 37 2.6 22 -5.3 56 56 WSW 3 6 30.05 1018 10 16.0934 0 0
8:15 pm 20:15 Clear 36 2.3 22 -5.6 56 56 SW 7 11 30.05 1018 10 16.0934 0 0
8:35 pm 20:35 Clear 36 2.1 21 -6 55 55 SW 9 15 30.06 1018 10 16.0934 0 0
8:55 pm 20:55 Clear 34 1.1 21 -6 60 60 SW 7 11 30.08 1018 10 16.0934 0 0
9:15 pm 21:15 Clear 34 1.2 21 -6.1 59 59 WSW 3 6 30.08 1018 10 16.0934 0 0
9:35 pm 21:35 Clear 33 0.8 20 -6.4 59 59 SSW 5 7 30.08 1019 10 16.0934 0 0
9:55 pm 21:55 Clear 33 0.6 19 -7 57 57 SW 5 7 30.08 1019 10 16.0934 0 0
10:15 pm 22:15 Clear 31 -0.7 20 -6.6 65 65 W 7 11 30.1 1019 10 16.0934 0 0
10:35 pm 22:35 Clear 32 0 19 -7.3 58 58 WSW 3 6 30.11 1020 10 16.0934 0 0
10:55 pm 22:55 Clear 28 -2.2 20 -6.5 73 73 Calm 30.13 1020 10 16.0934 0 0
11:15 pm 23:15 Clear 28 -2 21 -6.3 73 73 Calm 30.14 1021 10 16.0934 0 0
11:35 pm 23:35 Clear 28 -2.2 20 -6.5 73 73 Calm 30.14 1021 10 16.0934 0 0
11:55 pm 23:55 Clear 26 -3.6 22 -5.6 86 86 W 7 11 30.16 1021 10 16.0934 0 0

Powered by AerisWeather